Regional Weather Roundup
Issued by NWS

Home | Current Version | Previous Version | Graphics & Text | Print | Product List | Glossary Off
Versions: 1 2 3 4 5 6 7 8 9 10 11 12 13 14 15 16 17 18 19 20 21 22 23 24 25 26 27 28 29 30 31 32 33 34 35 36 37 38 39 40 41 42 43 44 45 46 47 48 49 50

000
ASUS43 KMPX 281210
RWRMN
WEATHER ROUNDUP FOR MINNESOTA
NATIONAL WEATHER SERVICE TWIN CITIES/CHANHASSEN MN
700 AM CDT WED SEP 28 2016


NOTE: "FAIR" INDICATES FEW OR NO CLOUDS BELOW 12,000 FEET WITH NO
SIGNIFICANT WEATHER AND/OR OBSTRUCTIONS TO VISIBILITY. N/A MEANS
CURRENT SKY AND/OR WEATHER CONDITIONS ARE NOT AVAILABLE.

MNZ060>063-068>070-281300-
   Twin Cities Metro

CITY           SKY/WX    TMP DP  RH WIND       PRES   REMARKS
TWIN CITIES    CLOUDY    51  47  86 N8        30.05R
6HR MIN TEMP:  50; 6HR MAX TEMP:  51;

ST PAUL        CLOUDY    50  47  89 NW12      30.05R
CRYSTAL        CLOUDY    50  45  83 N9        30.05R
BLAINE         CLOUDY    52  50  93 NW10      30.04R
LAKEVILLE      CLOUDY    48  48 100 NW9       30.04R
EDEN PRAIRIE   CLOUDY    52  47  83 N9        30.04R
6HR MIN TEMP:  50; 6HR MAX TEMP:  52;

LAKEVILLE      CLOUDY    48  48 100 NW9       30.04R
SOUTH ST PAUL  CLOUDY    51  47  84 N9        30.03R
LAKE ELMO      CLOUDY    52  48  87 N10       30.04R
$$
MNZ001>005-007-008-013>017-022>024-027-028-281300-
   Northwest Minnesota

CITY           SKY/WX    TMP DP  RH WIND       PRES   REMARKS
BEMIDJI        PTCLDY    44  44  99 N5        30.16R
HALLOCK        CLOUDY    37  37 100 CALM      30.21R
ROSEAU         CLOUDY    46  43  87 CALM      30.20R
WARROAD        CLOUDY    48  45  87 N5        30.20R
THIEF RVR FALL   N/A     45  43  93 NW6       30.20R
CROOKSTON      CLOUDY    45  43  93 N3        30.21R
FOSSTON        CLOUDY    43  43 100 N5        30.19R
DETROIT LAKES  CLOUDY    46  45  93 CALM      30.18R
MOORHEAD       CLOUDY    45  41  87 N6        30.19R
PARK RAPIDS    CLOUDY    48  44  86 N9        30.15R
MAHNOMEN       CLOUDY    45  44  97 NE3       30.17R
$$
MNZ006-009>011-018-025>026-281300-
   North Central Minnesota

CITY           SKY/WX    TMP DP  RH WIND       PRES   REMARKS
BAUDETTE       CLEAR     46  44  93 N5        30.18R
FLAG ISLAND    CLOUDY    50  48  93 NW7       30.18R
INTL FALLS     CLOUDY    51  48  89 NE7       30.16R
6HR MIN TEMP:  48; 6HR MAX TEMP:  51;

WASKISH        FOG       46  45  93 NE6       30.18R VSB 1
BIG FORK       CLOUDY    50  46  87 N5        30.14R
GRAND RAPIDS   PTCLDY    48  46  93 N7        30.14R
CRANE LAKE     CLEAR     46  46 100 CALM      30.16R
ORR            MOCLDY    48  45  87 CALM      30.11R
COOK           CLEAR     46  46 100 CALM      30.13R
WALKER         CLOUDY    45  45  99 N5        30.15R
$$
MNZ012-019>021-037-281300-
   Northeast Minnesota

CITY           SKY/WX    TMP DP  RH WIND       PRES   REMARKS
DULUTH         PTCLDY    49  47  93 N9        30.07R
6HR MIN TEMP:  49; 6HR MAX TEMP:  51;

ELY            CLOUDY    48  46  93 CALM      30.11R
HIBBING        PTCLDY    48  46  93 N7        30.11R
EVELETH        CLOUDY    50  48  93 N8        30.12R
DULUTH HARBOR  MOCLDY    55  50  82 N16       30.07R
TWO HARBORS    CLEAR     54  48  82 N7        30.05R
SILVER BAY     CLOUDY    52  48  87 N3        30.06R
GRAND MARAIS     N/A     55  48  77 N7        30.05R
G MARAIS ARPRT CLOUDY    48  43  81 N13       30.08R
$$
MNZ029>031-032-039>041-046>048-054>057-064-281300-
   West Central Minnesota

CITY           SKY/WX    TMP DP  RH WIND       PRES   REMARKS
FERGUS FALLS   CLOUDY    46  46 100 E6        30.19R
MORRIS         CLOUDY    46  45  93 N7        30.14R
ALEXANDRIA     CLOUDY    47  46  97 N8        30.15R
ELBOW LAKE     CLOUDY    46  45  95 NE6       30.16R
GLENWOOD       CLOUDY    46  45  93 N7        30.14R
BENSON         CLOUDY    46  43  87 E6        30.15R
ORTONVILLE     CLOUDY    45  41  87 CALM      30.16R
MADISON        CLOUDY    48  46  93 N6        30.15R
WILLMAR        CLOUDY    50  46  87 NE10      30.13R
$$
MNZ033>034-036-042>043-049>051-058-059-281300-
   Central Minnesota

CITY           SKY/WX    TMP DP  RH WIND       PRES   REMARKS
ST CLOUD       CLEAR     48  47  96 N9        30.09R
6HR MIN TEMP:  47; 6HR MAX TEMP:  49;

SAUK CENTRE    CLOUDY    47  46  93 N6        30.13R
PAYNESVILLE    CLOUDY    49  49 100 N5        30.11R
AITKIN           N/A     48  45  87 N6        30.10R
PINE RIVER     PTCLDY    48  46  93 NW3       30.16R
BRAINERD       PTCLDY    48  46  93 N7        30.11R
STAPLES        CLEAR     45  43  93 NW3       30.13R
LONG PRAIRIE   CLOUDY    46  45  93 NW3       30.13R
LITTLE FALLS   CLOUDY    48  45  87 CALM      30.11R
LITCHFIELD     PTCLDY    48  46  93 N9        30.10R
BUFFALO        CLEAR     48  45  89 NW5       30.08R
MAPLE LAKE     CLEAR     48  47  95 N8        30.09R
HUTCHINSON     CLOUDY    49  47  90 NW7       30.09R
$$
MNZ037-044-045-052-053-281300-
   East Central Minnesota

CITY           SKY/WX    TMP DP  RH WIND       PRES   REMARKS
PRINCETON      CLOUDY    50  48  93 NW7       30.08R
MORA           CLOUDY    50  46  87 N6        30.10R
CAMBRIDGE      CLOUDY    54  45  71 NW12      30.05R
MOOSE LAKE     CLOUDY    50  45  81 N7        30.06R
HINCKLEY       CLOUDY    52  48  87 NW8       30.07R
CLOQUET        MOCLDY    46  45  93 NW10      30.08R
MCGREGOR       CLOUDY    48  46  93 N9        30.10R
$$
MNZ071>073-080-081-089-090-097-098-281300-
   Southwest Minnesota

CITY           SKY/WX    TMP DP  RH WIND       PRES   REMARKS
MONTEVIDEO     CLOUDY    46  45  93 NE9       30.15R
GRANITE FALLS  CLOUDY    48  45  88 N9        30.15R
CANBY          CLOUDY    45  43  91 NW5       30.16R
MARSHALL       CLOUDY    45  43  93 N9        30.14R
REDWOOD FALLS  CLOUDY    47  45  93 NW5       30.11R
OLIVIA         CLOUDY    50  46  87 N6        30.11R
PIPESTONE      CLEAR     43  41  93 NE6       30.11R
WINDOM         CLOUDY    46  43  87 N12       30.10R
WORTHINGTON    CLOUDY    44  42  93 N16G22    30.10R
JACKSON        CLOUDY    46  41  81 N9        30.09R
TRACY          CLOUDY    46  44  92 N9        30.13R
$$
MNZ065>067-074>077-082>085-091>093-281300-
   South Central Minnesota

CITY           SKY/WX    TMP DP  RH WIND       PRES   REMARKS
MANKATO        CLOUDY    50  46  86 NW13      30.06R
NEW ULM        CLOUDY    48  46  93 NW8       30.08R
ST JAMES       CLOUDY    46  46 100 NW8       30.09R
FAIRMONT       CLOUDY    48  45  89 N9        30.07R
GLENCOE        PTCLDY    47  47  99 NW5       30.07R
FARIBAULT      CLOUDY    52  46  82 NW7       30.04R
OWATONNA       CLOUDY    50  45  81 NW10      30.03R
WASECA         CLOUDY    50  45  81 NW10      30.05R
ALBERT LEA     CLOUDY    50  46  87 NW9       30.02R
$$
MNZ078>079-086>088-094>096-281300-
   Southeast Minnesota

CITY           SKY/WX    TMP DP  RH WIND       PRES   REMARKS
ROCHESTER      CLOUDY    50  47  89 N14       29.99R
6HR MIN TEMP:  48; 6HR MAX TEMP:  50;

RED WING       CLOUDY    54  48  82 N6        30.00R
DODGE CENTER   CLOUDY    48  46  93 NW13      30.01R
WINONA         CLOUDY    52  48  87 NW10      29.96R
AUSTIN         CLOUDY    48  45  87 NW9       30.00R
PRESTON        CLOUDY    48  45  88 N15G21    29.98R
$$
ABBREVIATIONS USED IN REMARKS
   TC - TEMPERATURES IN CELSIUS
  WCI - WIND CHILL INDEX
   HX - HEAT INDEX
  VSB - VISIBILITY
$$



USA.gov is the U.S. government's official web portal to all federal, state and local government web resources and services.